| time (UTC) | temp F | wind direction | speed MPH | gust MPH | rain 1hr in | rain 24hr in | rain mn in | humidity % | barometer mb |
| 20260505054932 | 63 | 132 | 2.0 | 5.0 | 0.00 | 0.00 | 0.00 | 55 | 1009.4 |
| 20260505054429 | 63 | 146 | 3.0 | 3.0 | 0.00 | 0.00 | 0.00 | 55 | 1009.5 |
| 20260505053927 | 63 | 155 | 0.0 | 3.0 | 0.00 | 0.00 | 0.00 | 54 | 1009.6 |
| 20260505053424 | 63 | 228 | 4.0 | 5.0 | 0.00 | 0.00 | 0.00 | 54 | 1009.5 |
| 20260505052921 | 64 | 160 | 1.0 | 3.0 | 0.00 | 0.00 | 0.00 | 54 | 1009.5 |
| 20260505052418 | 64 | 145 | 0.0 | 4.0 | 0.00 | 0.00 | 0.00 | 53 | 1009.6 |
| 20260505051915 | 64 | 170 | 2.0 | 4.0 | 0.00 | 0.00 | 0.00 | 52 | 1009.6 |
| 20260505051412 | 65 | 236 | 4.0 | 7.0 | 0.00 | 0.00 | 0.00 | 52 | 1009.6 |
| 20260505050911 | 65 | 179 | 3.0 | 6.0 | 0.00 | 0.00 | 0.00 | 52 | 1009.5 |
| 20260505050409 | 64 | 187 | 3.0 | 4.0 | 0.00 | 0.00 | 0.00 | 52 | 1009.7 |
| 20260505041336 | 65 | 185 | 1.0 | 5.0 | 0.00 | 0.00 | 0.00 | 51 | 1009.5 |
| 20260505040833 | 64 | 140 | 3.0 | 4.0 | 0.00 | 0.00 | 0.00 | 51 | 1009.4 |
| 20260505040331 | 64 | 147 | 3.0 | 3.0 | 0.00 | 0.00 | 0.00 | 51 | 1009.5 |
| 20260505035827 | 64 | 146 | 5.0 | 5.0 | 0.00 | 0.00 | 0.00 | 51 | 1009.6 |
| 20260505035323 | 65 | 164 | 2.0 | 5.0 | 0.00 | 0.00 | 0.00 | 50 | 1009.2 |
| 20260505034821 | 65 | 192 | 5.0 | 5.0 | 0.00 | 0.00 | 0.00 | 49 | 1009.4 |
| 20260505034317 | 65 | 143 | 1.0 | 3.0 | 0.00 | 0.00 | 0.00 | 49 | 1009.1 |
| 20260505033814 | 65 | 194 | 3.0 | 5.0 | 0.00 | 0.00 | 0.00 | 49 | 1009.5 |
| 20260505033311 | 66 | 208 | 2.0 | 6.0 | 0.00 | 0.00 | 0.00 | 48 | 1009.2 |
| 20260505032809 | 66 | 198 | 4.0 | 7.0 | 0.00 | 0.00 | 0.00 | 48 | 1009.1 |
| 20260505032305 | 66 | 153 | 7.0 | 8.0 | 0.00 | 0.00 | 0.00 | 48 | 1009.4 |
| 20260505031803 | 66 | 244 | 2.0 | 3.0 | 0.00 | 0.00 | 0.00 | 48 | 1009.6 |
| 20260505031259 | 66 | 221 | 1.0 | 8.0 | 0.00 | 0.00 | 0.00 | 47 | 1009.3 |
| 20260505030756 | 66 | 186 | 3.0 | 8.0 | 0.00 | 0.00 | 0.00 | 47 | 1009.4 |
| 20260505030252 | 66 | 144 | 0.0 | 4.0 | 0.00 | 0.00 | 0.00 | 47 | 1009.4 |
| 20260505025747 | 67 | 170 | 2.0 | 6.0 | 0.00 | 0.00 | 0.00 | 46 | 1009.4 |
| 20260505025246 | 66 | 212 | 3.0 | 4.0 | 0.00 | 0.00 | 0.00 | 46 | 1009.2 |
| 20260505024744 | 66 | 203 | 2.0 | 4.0 | 0.00 | 0.00 | 0.00 | 46 | 1009.3 |
| 20260505024241 | 67 | 169 | 2.0 | 5.0 | 0.00 | 0.00 | 0.00 | 46 | 1009.3 |
| 20260505023738 | 67 | 194 | 5.0 | 6.0 | 0.00 | 0.00 | 0.00 | 45 | 1009.3 |
| 20260505023235 | 66 | 206 | 7.0 | 7.0 | 0.00 | 0.00 | 0.00 | 46 | 1009.4 |
| 20260505022732 | 66 | 195 | 4.0 | 7.0 | 0.00 | 0.00 | 0.00 | 45 | 1009.3 |
| 20260505022229 | 66 | 189 | 2.0 | 5.0 | 0.00 | 0.00 | 0.00 | 46 | 1009.4 |
| 20260505021726 | 66 | 148 | 1.0 | 5.0 | 0.00 | 0.00 | 0.00 | 46 | 1009.3 |
| 20260505021223 | 66 | 176 | 1.0 | 3.0 | 0.00 | 0.00 | 0.00 | 46 | 1009.2 |
| 20260505020719 | 67 | 151 | 2.0 | 4.0 | 0.00 | 0.00 | 0.00 | 45 | 1009.3 |
| 20260505020214 | 67 | 152 | 4.0 | 5.0 | 0.00 | 0.00 | 0.00 | 45 | 1009.1 |
| 20260505015712 | 67 | 157 | 1.0 | 4.0 | 0.00 | 0.00 | 0.00 | 44 | 1009.2 |
| 20260505015209 | 66 | 158 | 2.0 | 4.0 | 0.00 | 0.00 | 0.00 | 45 | 1009.1 |
| 20260505014705 | 66 | 159 | 2.0 | 3.0 | 0.00 | 0.00 | 0.00 | 45 | 1009.0 |
| 20260505014203 | 67 | 157 | 1.0 | 3.0 | 0.00 | 0.00 | 0.00 | 44 | 1008.9 |
| 20260505013700 | 67 | 138 | 2.0 | 4.0 | 0.00 | 0.00 | 0.00 | 44 | 1009.0 |
| 20260505013157 | 67 | 206 | 2.0 | 5.0 | 0.00 | 0.00 | 0.00 | 44 | 1008.9 |
| 20260505012655 | 67 | 155 | 1.0 | 2.0 | 0.00 | 0.00 | 0.00 | 43 | 1008.9 |
| 20260505012152 | 68 | 166 | 3.0 | 4.0 | 0.00 | 0.00 | 0.00 | 42 | 1008.7 |
| 20260505011652 | 67 | 188 | 3.0 | 5.0 | 0.00 | 0.00 | 0.00 | 42 | 1008.7 |
| 20260505011150 | 68 | 158 | 3.0 | 3.0 | 0.00 | 0.00 | 0.00 | 42 | 1008.8 |
| 20260505010645 | 68 | 199 | 1.0 | 3.0 | 0.00 | 0.00 | 0.00 | 42 | 1008.7 |
| 20260505010142 | 68 | 172 | 3.0 | 3.0 | 0.00 | 0.00 | 0.00 | 42 | 1008.8 |
| 20260505005638 | 68 | 194 | 1.0 | 3.0 | 0.00 | 0.00 | 0.00 | 42 | 1008.8 |
| 20260505005135 | 69 | 176 | 3.0 | 4.0 | 0.00 | 0.00 | 0.00 | 40 | 1008.6 |
| 20260505004632 | 69 | 178 | 2.0 | 4.0 | 0.00 | 0.00 | 0.00 | 40 | 1008.6 |
| 20260505004128 | 69 | 182 | 3.0 | 4.0 | 0.00 | 0.00 | 0.00 | 40 | 1008.6 |
| 20260505003626 | 69 | 188 | 2.0 | 3.0 | 0.00 | 0.00 | 0.00 | 40 | 1008.8 |
| 20260505003124 | 69 | 180 | 2.0 | 4.0 | 0.00 | 0.00 | 0.00 | 39 | 1008.4 |
| 20260505002620 | 69 | 194 | 2.0 | 4.0 | 0.00 | 0.00 | 0.00 | 39 | 1008.5 |
| 20260505002118 | 70 | 185 | 1.0 | 5.0 | 0.00 | 0.00 | 0.00 | 39 | 1008.6 |
| 20260505001615 | 70 | 141 | 4.0 | 5.0 | 0.00 | 0.00 | 0.00 | 38 | 1008.5 |
| 20260505001113 | 70 | 174 | 4.0 | 5.0 | 0.00 | 0.00 | 0.00 | 38 | 1008.6 |
| 20260505000609 | 70 | 185 | 2.0 | 3.0 | 0.00 | 0.00 | 0.00 | 38 | 1008.4 |
| 20260505000107 | 70 | 223 | 4.0 | 5.0 | 0.00 | 0.00 | 0.00 | 37 | 1008.5 |
| 20260504235603 | 71 | 97 | 2.0 | 5.0 | 0.00 | 0.00 | 0.00 | 36 | 1008.4 |
| 20260504235100 | 71 | 191 | 5.0 | 8.0 | 0.00 | 0.00 | 0.00 | 36 | 1008.6 |
| 20260504234557 | 71 | 202 | 3.0 | 8.0 | 0.00 | 0.00 | 0.00 | 37 | 1008.2 |
| 20260504234054 | 71 | 170 | 3.0 | 8.0 | 0.00 | 0.00 | 0.00 | 35 | 1008.2 |
| 20260504233549 | 71 | 188 | 3.0 | 6.0 | 0.00 | 0.00 | 0.00 | 35 | 1008.3 |
| 20260504233046 | 72 | 186 | 5.0 | 5.0 | 0.00 | 0.00 | 0.00 | 35 | 1008.3 |
| 20260504232543 | 72 | 192 | 2.0 | 5.0 | 0.00 | 0.00 | 0.00 | 34 | 1008.5 |
| 20260504232041 | 72 | 181 | 3.0 | 5.0 | 0.00 | 0.00 | 0.00 | 34 | 1008.4 |
| 20260504231537 | 73 | 144 | 8.0 | 9.0 | 0.00 | 0.00 | 0.00 | 34 | 1008.4 |
| 20260504231033 | 73 | 178 | 4.0 | 5.0 | 0.00 | 0.00 | 0.00 | 33 | 1008.5 |
| 20260504230530 | 73 | 191 | 3.0 | 9.0 | 0.00 | 0.00 | 0.00 | 33 | 1008.4 |
| 20260504230029 | 73 | 155 | 5.0 | 10.0 | 0.00 | 0.00 | 0.00 | 33 | 1008.4 |
| 20260504225526 | 74 | 144 | 6.0 | 16.0 | 0.00 | 0.00 | 0.00 | 33 | 1008.4 |
| 20260504225023 | 74 | 210 | 4.0 | 8.0 | 0.00 | 0.00 | 0.00 | 33 | 1008.5 |
| 20260504224519 | 73 | 118 | 5.0 | 10.0 | 0.00 | 0.00 | 0.00 | 33 | 1008.2 |
| 20260504224017 | 73 | 165 | 8.0 | 9.0 | 0.00 | 0.00 | 0.00 | 32 | 1008.2 |
| 20260504223513 | 73 | 213 | 7.0 | 9.0 | 0.00 | 0.00 | 0.00 | 32 | 1008.5 |
| 20260504223009 | 74 | 185 | 8.0 | 10.0 | 0.00 | 0.00 | 0.00 | 32 | 1008.2 |
| 20260504222506 | 74 | 227 | 9.0 | 9.0 | 0.00 | 0.00 | 0.00 | 32 | 1008.2 |
| 20260504222003 | 74 | 174 | 5.0 | 7.0 | 0.00 | 0.00 | 0.00 | 31 | 1008.2 |
| 20260504221500 | 74 | 186 | 4.0 | 7.0 | 0.00 | 0.00 | 0.00 | 32 | 1008.1 |
| 20260504220957 | 74 | 220 | 8.0 | 12.0 | 0.00 | 0.00 | 0.00 | 32 | 1008.0 |
| 20260504220454 | 75 | 222 | 8.0 | 10.0 | 0.00 | 0.00 | 0.00 | 30 | 1008.3 |
| 20260504215951 | 75 | 210 | 4.0 | 4.0 | 0.00 | 0.00 | 0.00 | 31 | 1008.1 |
| 20260504215447 | 76 | 149 | 10.0 | 12.0 | 0.00 | 0.00 | 0.00 | 29 | 1008.1 |
| 20260504214944 | 75 | 211 | 7.0 | 7.0 | 0.00 | 0.00 | 0.00 | 30 | 1008.1 |
| 20260504214440 | 75 | 196 | 5.0 | 6.0 | 0.00 | 0.00 | 0.00 | 30 | 1008.3 |
| 20260504213937 | 76 | 201 | 4.0 | 7.0 | 0.00 | 0.00 | 0.00 | 30 | 1008.3 |
| 20260504213433 | 76 | 231 | 7.0 | 9.0 | 0.00 | 0.00 | 0.00 | 30 | 1008.3 |
| 20260504212931 | 76 | 224 | 7.0 | 10.0 | 0.00 | 0.00 | 0.00 | 30 | 1008.3 |
| 20260504212426 | 75 | 160 | 6.0 | 8.0 | 0.00 | 0.00 | 0.00 | 30 | 1008.3 |
| 20260504211925 | 76 | 203 | 6.0 | 10.0 | 0.00 | 0.00 | 0.00 | 30 | 1008.4 |
| 20260504211420 | 76 | 282 | 2.0 | 3.0 | 0.00 | 0.00 | 0.00 | 31 | 1008.5 |
| 20260504210918 | 77 | 235 | 5.0 | 7.0 | 0.00 | 0.00 | 0.00 | 30 | 1008.4 |
| 20260504210415 | 76 | 181 | 7.0 | 12.0 | 0.00 | 0.00 | 0.00 | 30 | 1008.3 |
| 20260504205912 | 76 | 203 | 3.0 | 7.0 | 0.00 | 0.00 | 0.00 | 30 | 1008.3 |
| 20260504205410 | 76 | 167 | 10.0 | 15.0 | 0.00 | 0.00 | 0.00 | 29 | 1008.3 |
| 20260504204908 | 75 | 180 | 7.0 | 13.0 | 0.00 | 0.00 | 0.00 | 30 | 1008.4 |
| 20260504204406 | 75 | 212 | 7.0 | 7.0 | 0.00 | 0.00 | 0.00 | 31 | 1008.3 |
| 20260504203905 | 76 | 201 | 5.0 | 7.0 | 0.00 | 0.00 | 0.00 | 30 | 1008.3 |
| 20260504203402 | 75 | 249 | 5.0 | 8.0 | 0.00 | 0.00 | 0.00 | 30 | 1008.3 |
| 20260504202857 | 75 | 187 | 5.0 | 10.0 | 0.00 | 0.00 | 0.00 | 30 | 1008.6 |
| 20260504202354 | 75 | 209 | 8.0 | 13.0 | 0.00 | 0.00 | 0.00 | 29 | 1008.8 |
| 20260504201851 | 75 | 236 | 6.0 | 7.0 | 0.00 | 0.00 | 0.00 | 31 | 1008.8 |
| 20260504201349 | 75 | 220 | 3.0 | 4.0 | 0.00 | 0.00 | 0.00 | 32 | 1008.8 |
| 20260504200846 | 75 | 241 | 6.0 | 9.0 | 0.00 | 0.00 | 0.00 | 30 | 1008.8 |
| 20260504200342 | 75 | 234 | 5.0 | 11.0 | 0.00 | 0.00 | 0.00 | 31 | 1008.9 |
| 20260504195839 | 75 | 219 | 6.0 | 9.0 | 0.00 | 0.00 | 0.00 | 30 | 1009.0 |
| 20260504195334 | 75 | 217 | 8.0 | 11.0 | 0.00 | 0.00 | 0.00 | 30 | 1009.0 |
| 20260504194831 | 75 | 229 | 7.0 | 8.0 | 0.00 | 0.00 | 0.00 | 31 | 1008.9 |
| 20260504194327 | 74 | 229 | 9.0 | 9.0 | 0.00 | 0.00 | 0.00 | 31 | 1009.3 |
| 20260504193823 | 74 | 284 | 3.0 | 11.0 | 0.00 | 0.00 | 0.00 | 31 | 1009.3 |
| 20260504193321 | 74 | 237 | 5.0 | 9.0 | 0.00 | 0.00 | 0.00 | 32 | 1009.4 |
| 20260504192820 | 74 | 215 | 5.0 | 7.0 | 0.00 | 0.00 | 0.00 | 32 | 1009.6 |
| 20260504192317 | 75 | 162 | 11.0 | 14.0 | 0.00 | 0.00 | 0.00 | 31 | 1009.6 |
| 20260504191816 | 74 | 208 | 2.0 | 4.0 | 0.00 | 0.00 | 0.00 | 32 | 1009.7 |
| 20260504191313 | 74 | 252 | 5.0 | 11.0 | 0.00 | 0.00 | 0.00 | 32 | 1010.0 |
| 20260504190808 | 73 | 224 | 3.0 | 5.0 | 0.00 | 0.00 | 0.00 | 34 | 1009.8 |
| 20260504190304 | 73 | 237 | 5.0 | 14.0 | 0.00 | 0.00 | 0.00 | 32 | 1010.0 |
| 20260504185801 | 73 | 257 | 7.0 | 11.0 | 0.00 | 0.00 | 0.00 | 32 | 1010.3 |
| 20260504185258 | 72 | 224 | 8.0 | 10.0 | 0.00 | 0.00 | 0.00 | 34 | 1010.0 |
| 20260504184754 | 72 | 261 | 4.0 | 9.0 | 0.00 | 0.00 | 0.00 | 33 | 1010.2 |
| 20260504184250 | 72 | 215 | 5.0 | 11.0 | 0.00 | 0.00 | 0.00 | 33 | 1010.3 |
| 20260504183746 | 73 | 220 | 5.0 | 6.0 | 0.00 | 0.00 | 0.00 | 32 | 1010.5 |
| 20260504183243 | 73 | 264 | 2.0 | 6.0 | 0.00 | 0.00 | 0.00 | 31 | 1010.5 |
| 20260504182741 | 72 | 251 | 5.0 | 7.0 | 0.00 | 0.00 | 0.00 | 34 | 1010.2 |
| 20260504182238 | 71 | 208 | 3.0 | 13.0 | 0.00 | 0.00 | 0.00 | 33 | 1010.5 |
| 20260504181736 | 72 | 233 | 11.0 | 13.0 | 0.00 | 0.00 | 0.00 | 34 | 1010.6 |
| 20260504181233 | 71 | 296 | 2.0 | 7.0 | 0.00 | 0.00 | 0.00 | 31 | 1010.6 |
| 20260504180732 | 72 | 220 | 12.0 | 13.0 | 0.00 | 0.00 | 0.00 | 30 | 1011.0 |
| 20260504180230 | 71 | 262 | 3.0 | 7.0 | 0.00 | 0.00 | 0.00 | 33 | 1010.8 |
| 20260504175728 | 71 | 209 | 8.0 | 10.0 | 0.00 | 0.00 | 0.00 | 31 | 1010.8 |
| 20260504175224 | 71 | 344 | 4.0 | 7.0 | 0.00 | 0.00 | 0.00 | 33 | 1010.8 |
| 20260504174722 | 72 | 207 | 8.0 | 12.0 | 0.00 | 0.00 | 0.00 | 31 | 1011.0 |
| 20260504174220 | 71 | 286 | 5.0 | 9.0 | 0.00 | 0.00 | 0.00 | 31 | 1011.1 |
| 20260504173716 | 70 | 253 | 7.0 | 12.0 | 0.00 | 0.00 | 0.00 | 33 | 1010.9 |
| 20260504173213 | 70 | 206 | 4.0 | 9.0 | 0.00 | 0.00 | 0.00 | 30 | 1011.0 |
| 20260504172709 | 71 | 255 | 3.0 | 10.0 | 0.00 | 0.00 | 0.00 | 32 | 1011.2 |
| 20260504172206 | 70 | 205 | 4.0 | 11.0 | 0.00 | 0.00 | 0.00 | 32 | 1011.1 |
| 20260504171702 | 70 | 198 | 5.0 | 6.0 | 0.00 | 0.00 | 0.00 | 32 | 1011.1 |
| 20260504171200 | 70 | 192 | 6.0 | 13.0 | 0.00 | 0.00 | 0.00 | 33 | 1011.5 |
| 20260504170656 | 70 | 166 | 2.0 | 8.0 | 0.00 | 0.00 | 0.00 | 34 | 1011.3 |
| 20260504170154 | 69 | 262 | 4.0 | 12.0 | 0.00 | 0.00 | 0.00 | 32 | 1011.6 |
| 20260504160112 | 68 | 200 | 4.0 | 10.0 | 0.00 | 0.00 | 0.00 | 33 | 1012.3 |
| 20260504151039 | 66 | 182 | 4.0 | 5.0 | 0.00 | 0.00 | 0.00 | 34 | 1012.6 |
| 20260504150536 | 66 | 285 | 4.0 | 10.0 | 0.00 | 0.00 | 0.00 | 34 | 1012.7 |
| 20260504141002 | 63 | 275 | 1.0 | 8.0 | 0.00 | 0.00 | 0.00 | 37 | 1013.0 |
| 20260504140459 | 62 | 177 | 3.0 | 7.0 | 0.00 | 0.00 | 0.00 | 39 | 1012.6 |
| 20260504130423 | 58 | 151 | 4.0 | 4.0 | 0.00 | 0.00 | 0.00 | 47 | 1013.1 |
| 20260504110310 | 48 | 138 | 2.0 | 3.0 | 0.00 | 0.00 | 0.00 | 65 | 1013.7 |
| 20260504100228 | 48 | 118 | 2.0 | 3.0 | 0.00 | 0.00 | 0.00 | 65 | 1013.7 |
| 20260504081622 | 43 | 77 | 2.0 | 2.0 | 0.00 | 0.00 | 0.00 | 79 | 1014.2 |
| 20260504081117 | 43 | 114 | 1.0 | 2.0 | 0.00 | 0.00 | 0.00 | 79 | 1014.2 |
| 20260504080614 | 43 | 108 | 2.0 | 2.0 | 0.00 | 0.00 | 0.00 | 79 | 1014.2 |
| 20260504080111 | 43 | 98 | 1.0 | 2.0 | 0.00 | 0.00 | 0.00 | 79 | 1014.3 |